New Bern, NC

10:51 AM EST on December 09, 2019 (GMT -0500)
Craven County Regional

Weather History for KEWN - August, 2019

Change the Weather History Date:

Wednesday, August 28, 2019

  Actual Average Record
Temperature  
Mean Temperature 79 °F 78 °F  
Max Temperature 88 °F 87 °F 96 °F (1987)
Min Temperature 70 °F 69 °F 57 °F (1986)
Degree Days  
Heating Degree Days 0 0  
Month to date heating degree days 0 0  
Since 1 June heating degree days 0 1  
Since 1 July heating degree days 0 0  
Cooling Degree Days 14 13  
Month to date cooling degree days 430 400  
Year to date cooling degree days 1749 1490  
Since 1 June cooling degree days 1330 1247  
Growing Degree Days 29 (Base 50)    
Moisture  
Dew Point 72 °F    
Average Humidity 86    
Maximum Humidity 100    
Minimum Humidity 65    
Precipitation  
Precipitation 0.00 in 0.20 in 2.09 in (1959)
Month to date precipitation 5.50 6.07  
Year to date precipitation 28.44 36.22  
Snow  
Snow 0.00 in - - ()
Month to date snowfall 0.0  
Since 1 July snowfall 0.0  
Snow Depth 0.00 in    
Sea Level Pressure  
Sea Level Pressure 29.88 in    
Wind  
Wind Speed 4 mph ()    
Max Wind Speed 14 mph    
Max Gust Speed 17 mph    
Visibility 10.0 miles    
Events      
T = Trace of Precipitation, MM = Missing Value Source: Averaged Metar Reports

Daily Weather History Graph

Daily Weather History Graph

Search for Another Location

Airport or City:

Astronomy

Aug. 28, 2019 Rise Set
Actual Time 6:37 AM EDT 7:40 PM EDT
Civil Twilight 6:11 AM EDT 8:06 PM EDT
Nautical Twilight 5:40 AM EDT 8:37 PM EDT
Astronomical Twilight 5:08 AM EDT 9:09 PM EDT
Moon 4:14 AM EDT (8/28) 6:44 PM EDT (8/28)
Length of Visible Light 13h 55m
Length of Day
13h 02m
Waning Crescent, 5% of the Moon is Illuminated
Aug 28
Waning Crescent
Aug 30
New
Sep 5
First Quarter
Sep 14
Full
Sep 21
Last Quarter

Hourly Weather History & Observations

Time (EDT) Temp. Heat Index Dew Point Humidity Pressure Visibility Wind Dir Wind Speed Gust Speed Precip Events Conditions
12:54 AM 73.0 °F - 72.0 °F 96% 29.94 in 10.0 mi North 3.5 mph - N/A   Clear
1:54 AM 73.0 °F - 72.0 °F 96% 29.92 in 10.0 mi North 4.6 mph - N/A   Clear
2:54 AM 72.0 °F - 72.0 °F 100% 29.91 in 10.0 mi NNW 4.6 mph - N/A   Clear
3:54 AM 72.0 °F - 71.1 °F 97% 29.90 in 10.0 mi North 4.6 mph - N/A   Clear
4:54 AM 71.1 °F - 71.1 °F 100% 29.88 in 10.0 mi North 4.6 mph - N/A   Clear
5:54 AM 71.1 °F - 70.0 °F 96% 29.88 in 10.0 mi North 3.5 mph - N/A   Clear
6:54 AM 71.1 °F - 70.0 °F 96% 29.89 in 10.0 mi NW 5.8 mph - N/A   Clear
7:04 AM 71.1 °F - 70.0 °F 96% 29.89 in 10.0 mi NW 3.5 mph - N/A   Partly Cloudy
7:20 AM 71.1 °F - 70.0 °F 96% 29.89 in 10.0 mi North 4.6 mph - N/A   Mostly Cloudy
7:34 AM 71.1 °F - 71.1 °F 100% 29.89 in 10.0 mi NNW 4.6 mph - N/A   Scattered Clouds
7:54 AM 72.0 °F - 71.1 °F 97% 29.88 in 10.0 mi NNW 5.8 mph - N/A   Clear
9:54 AM 78.1 °F - 71.1 °F 79% 29.89 in 10.0 mi NNW 9.2 mph - N/A   Clear
10:54 AM 82.0 °F 86.3 °F 71.1 °F 69% 29.89 in 10.0 mi NNW 8.1 mph - N/A   Clear
11:54 AM 84.0 °F 89.6 °F 72.0 °F 67% 29.89 in 10.0 mi North 9.2 mph - N/A   Clear
12:54 PM 84.0 °F 89.6 °F 72.0 °F 67% 29.88 in 10.0 mi NNW 9.2 mph - N/A   Mostly Cloudy
1:54 PM 86.0 °F 93.0 °F 73.0 °F 65% 29.86 in 10.0 mi NNW 4.6 mph - N/A   Mostly Cloudy
2:54 PM 86.0 °F 93.0 °F 73.0 °F 65% 29.85 in 10.0 mi WNW 8.1 mph - N/A   Mostly Cloudy
3:54 PM 84.9 °F 91.4 °F 73.0 °F 67% 29.83 in 10.0 mi NNW 6.9 mph - N/A   Mostly Cloudy
4:54 PM 84.0 °F 90.2 °F 73.0 °F 69% 29.83 in 10.0 mi NW 5.8 mph - N/A   Overcast
5:54 PM 82.9 °F 88.8 °F 73.0 °F 72% 29.84 in 10.0 mi North 9.2 mph - N/A   Partly Cloudy
6:54 PM 82.9 °F 89.4 °F 73.9 °F 74% 29.84 in 10.0 mi NNW 4.6 mph - N/A   Overcast
7:54 PM 80.1 °F 84.5 °F 73.9 °F 81% 29.85 in 10.0 mi Calm Calm - N/A   Clear
8:54 PM 77.0 °F - 73.9 °F 90% 29.86 in 10.0 mi Calm Calm - N/A   Clear
9:54 PM 75.0 °F - 73.9 °F 96% 29.87 in 10.0 mi Calm Calm - N/A   Clear
10:54 PM 75.0 °F - 73.9 °F 96% 29.88 in 10.0 mi Calm Calm - N/A   Clear
11:54 PM 73.9 °F - 73.9 °F 100% 29.89 in 10.0 mi Calm Calm - N/A   Clear